This is the latest recevied weather packets stored in our database for station/object N4TLC. If no packets are shown the sender has not sent any weather packets the latest 10 day(s).
| Time | Temp. | Humidity | Pressure | Rain* | Wind** | Luminosity | Snow |
|---|---|---|---|---|---|---|---|
| 1777569199 | 20.56° C | 49% | 1012 hPa | 0 mm | - | 276 W/m² | - |
| 1777568895 | 20.56° C | 49% | 1011.8 hPa | 0 mm | - | 201 W/m² | - |
| 1777568592 | 20.56° C | 50% | 1012.1 hPa | 0 mm | - | 181 W/m² | - |
| 1777568289 | 20° C | 50% | 1012.1 hPa | 0 mm | - | 225 W/m² | - |
| 1777567985 | 20° C | 52% | 1012.1 hPa | 0 mm | - | 150 W/m² | - |
| 1777567682 | 19.44° C | 51% | 1012.2 hPa | 0 mm | - | 120 W/m² | - |
| 1777567379 | 20° C | 52% | 1012.4 hPa | 0 mm | - | 119 W/m² | - |
| 1777567077 | 19.44° C | 54% | 1012.4 hPa | 0 mm | - | 1011 W/m² | - |
| 1777566775 | 19.44° C | 51% | 1012.6 hPa | 0 mm | - | 1102 W/m² | - |
| 1777566472 | 18.89° C | 53% | 1012.5 hPa | 0 mm | - | 1067 W/m² | - |
| 1777566170 | 19.44° C | 51% | 1012.7 hPa | 0 mm | - | 1004 W/m² | - |
| 1777565865 | 19.44° C | 52% | 1012.6 hPa | 0 mm | - | 981 W/m² | - |
| 1777565561 | 19.44° C | 51% | 1012.7 hPa | 0 mm | - | 978 W/m² | - |
| 1777565258 | 19.44° C | 52% | 1012.6 hPa | 0 mm | - | 962 W/m² | - |
| 1777564955 | 18.89° C | 53% | 1012.8 hPa | 0 mm | - | 942 W/m² | - |
| 1777564650 | 18.89° C | 53% | 1012.9 hPa | 0 mm | - | 933 W/m² | - |
| 1777564345 | 18.89° C | 52% | 1013.1 hPa | 0 mm | - | 921 W/m² | - |
| 1777564042 | 18.89° C | 53% | 1013 hPa | 0 mm | - | 910 W/m² | - |
| 1777563738 | 18.89° C | 53% | 1013.1 hPa | 0 mm | - | 910 W/m² | - |
| 1777563435 | 18.33° C | 53% | 1013.1 hPa | 0 mm | - | 886 W/m² | - |
| 1777563134 | 18.33° C | 57% | 1013.1 hPa | 0 mm | - | 737 W/m² | - |
| 1777562830 | 17.78° C | 58% | 1013.1 hPa | 0 mm | - | 749 W/m² | - |
| 1777562528 | 17.78° C | 56% | 1013.3 hPa | 0 mm | - | 309 W/m² | - |
| 1777562225 | 17.78° C | 59% | 1013.3 hPa | 0 mm | - | 330 W/m² | - |
| 1777561923 | 17.78° C | 59% | 1013.1 hPa | 0 mm | - | 273 W/m² | - |
* Rain latest hour (hover to see other rain measurements)
** Current wind speed in m/s (hover to see current wind gust speed)